Charleston, SC

8:02 AM EST on February 24, 2018 (GMT -0500)
Charleston Air Force Base-International

Weather History for KCHS - January, 2013

Change the Weather History Date:

Tuesday, January 1, 2013

  Actual Average Record
Temperature  
Mean Temperature 57 °F 48 °F  
Max Temperature 68 °F 59 °F 80 °F (1952)
Min Temperature 45 °F 38 °F 22 °F (2001)
Degree Days  
Heating Degree Days 8 17  
Month to date heating degree days 8 17  
Since 1 July heating degree days 706 755  
Cooling Degree Days 0 0  
Month to date cooling degree days 0 0  
Year to date cooling degree days 0 0  
Growing Degree Days 6 (Base 50)    
Moisture  
Dew Point 50 °F    
Average Humidity 76    
Maximum Humidity 93    
Minimum Humidity 58    
Precipitation  
Precipitation 0.00 in 0.12 in 1.52 in (1987)
Month to date precipitation 0.00 0.12  
Year to date precipitation 0.00 0.12  
Snow  
Snow 0.00 in 0.00 in - ()
Month to date snowfall 0.0  
Since 1 July snowfall 0.0 0.3  
Snow Depth 0.00 in    
Sea Level Pressure  
Sea Level Pressure 30.09 in    
Wind  
Wind Speed 7 mph (SW)    
Max Wind Speed 16 mph    
Max Gust Speed 22 mph    
Visibility 10 miles    
Events      
T = Trace of Precipitation, MM = Missing Value Source: NWS Daily Summary

Daily Weather History Graph

Daily Weather History Graph

Search for Another Location

Airport or City:

Trip Planner

Search our weather history database for the weather conditions in past years. The results will help you decide how hot, cold, wet, or windy it might be!

Date:

Astronomy

Jan. 01, 2013 Rise Set
Actual Time 7:22 AM EST 5:24 PM EST
Civil Twilight 6:55 AM EST 5:52 PM EST
Nautical Twilight 6:25 AM EST 6:22 PM EST
Astronomical Twilight 5:54 AM EST 6:53 PM EST
Moon 9:39 PM EST (1/1) 9:48 AM EST (1/1)
Length of Visible Light 10h 56m
Length of Day
10h 02m
Waning Gibbous, 83% of the Moon is Illuminated
Jan 1
Waning Gibbous
Jan 4
Last Quarter
Jan 11
New
Jan 18
First Quarter
Jan 26
Full

Hourly Weather History & Observations

Time (EST) Temp. Windchill Dew Point Humidity Pressure Visibility Wind Dir Wind Speed Gust Speed Precip Events Conditions
12:56 AM 50.0 °F - 44.1 °F 80% 30.19 in 10.0 mi WSW 5.8 mph - N/A   Scattered Clouds
1:56 AM 45.0 °F 42.6 °F 42.1 °F 90% 30.17 in 10.0 mi SSW 4.6 mph - N/A   Scattered Clouds
2:56 AM 46.0 °F 43.1 °F 44.1 °F 93% 30.15 in 10.0 mi SW 5.8 mph - N/A   Scattered Clouds
3:56 AM 48.9 °F - 45.0 °F 86% 30.14 in 10.0 mi SW 10.4 mph - N/A   Scattered Clouds
4:56 AM 50.0 °F - 45.0 °F 83% 30.12 in 10.0 mi SW 5.8 mph - N/A   Scattered Clouds
5:56 AM 50.0 °F - 45.0 °F 83% 30.13 in 10.0 mi WSW 3.5 mph - N/A   Mostly Cloudy
6:56 AM 48.9 °F - 45.0 °F 86% 30.13 in 10.0 mi WSW 4.6 mph - N/A   Mostly Cloudy
7:56 AM 50.0 °F - 46.0 °F 86% 30.15 in 10.0 mi West 3.5 mph - N/A   Mostly Cloudy
8:56 AM 53.1 °F - 48.0 °F 83% 30.16 in 10.0 mi WSW 5.8 mph - N/A   Mostly Cloudy
9:56 AM 57.9 °F - 48.9 °F 72% 30.16 in 10.0 mi SW 6.9 mph - N/A   Mostly Cloudy
10:56 AM 61.0 °F - 50.0 °F 67% 30.15 in 10.0 mi SW 5.8 mph - N/A   Overcast
11:56 AM 63.0 °F - 51.1 °F 65% 30.13 in 10.0 mi WSW 8.1 mph - N/A   Overcast
12:56 PM 63.0 °F - 51.1 °F 65% 30.10 in 10.0 mi SW 6.9 mph - N/A   Overcast
1:56 PM 64.0 °F - 52.0 °F 65% 30.07 in 10.0 mi SW 8.1 mph - N/A   Mostly Cloudy
2:56 PM 66.9 °F - 52.0 °F 59% 30.05 in 10.0 mi SSW 6.9 mph - N/A   Mostly Cloudy
3:56 PM 64.9 °F - 52.0 °F 63% 30.03 in 10.0 mi SSW 10.4 mph - N/A   Mostly Cloudy
4:56 PM 63.0 °F - 53.1 °F 70% 30.02 in 10.0 mi SW 8.1 mph - N/A   Mostly Cloudy
5:56 PM 60.1 °F - 53.1 °F 78% 30.02 in 10.0 mi SW 8.1 mph - N/A   Mostly Cloudy
6:56 PM 57.9 °F - 53.1 °F 84% 30.03 in 10.0 mi Calm Calm - N/A   Mostly Cloudy
7:56 PM 59.0 °F - 53.1 °F 81% 30.01 in 10.0 mi SSW 8.1 mph - N/A   Mostly Cloudy
8:56 PM 60.1 °F - 54.0 °F 80% 30.00 in 10.0 mi South 9.2 mph - N/A   Overcast
9:56 PM 61.0 °F - 54.0 °F 78% 29.99 in 10.0 mi SSW 8.1 mph - N/A   Mostly Cloudy
10:56 PM 61.0 °F - 55.0 °F 81% 29.97 in 10.0 mi South 8.1 mph - N/A   Mostly Cloudy
11:56 PM 60.1 °F - 55.9 °F 86% 29.97 in 10.0 mi South 6.9 mph - N/A   Mostly Cloudy